DON PEDRO RESERVOIR (DNP)

Elevation: 830' · TUOLUMNE R basin · Operator: Turlock Irrigation District


Station comments:

04/19/2016Reservoir elevation data is now being collected from the USGS site.


Provisional data, subject to change.
Query executed Wednesday at 21:23:10   clock

Select a sensor type for a plot of data.
Note: Reservoir Flows are daily averages.

Earlier

Date RES ELE    STORAGE    RES CHG    TOC STO    ABV TOC    OUTFLOW    INFLOW    PPT INC   
 FEET   AF   AF   AF   AF   CFS   CFS   INCHES  
07/26/2016 781.31 1480357 -22600 1980000 -509790 2435 382 0.00
07/27/2016 781.93 1476292 5270 1996667 -520375 2542 493 0.00
07/28/2016 781.43 1471223 -5879 2013333 -542110 3128 572 0.00
07/29/2016 780.99 1467177 -5157 2030000 -- 2670 631 0.00
07/30/2016 780.62 1463140 -3833 2030000 -- 2431 396 0.00
07/31/2016 780.27 1460118 -3323 2030000 -571090 2232 708 0.00
08/01/2016 780.06 1458106 -3736 2030000 -571894 1810 796 0.00
08/02/2016 779.77 1455069 -4241 2030000 -574931 1840 309 0.00
08/03/2016 779.49 1452060 -16991 2030000 -577940 2517 495 0.00
08/04/2016 778.93 1446055 -6504 2030000 -583945 2772 250 0.00
08/05/2016 778.39 1441066 -5986 2030000 -- 3259 744 0.00
08/06/2016 778.00 1437084 -3681 2030000 -- 2460 453 0.00
08/07/2016 777.72 1434102 -2782 2030000 -595898 1828 325 0.00
08/08/2016 777.37 1431126 -3868 2030000 -598874 2222 722 0.00
08/09/2016 777.13 1428154 -3269 2030000 -601846 1790 292 0.00
08/10/2016 776.73 1424199 -4350 2030000 -605801 2438 445 0.00
08/11/2016 776.38 1421239 -3552 2030000 -608761 2289 797 0.00
08/12/2016 776.21 1419267 -2366 2030000 -- 1560 566 0.00
08/13/2016 776.01 1417298 -1870 2030000 -- 1501 508 0.00
08/14/2016 775.75 1414349 -2654 2030000 -615651 1757 271 0.00
08/15/2016 775.45 1411404 -2945 2030000 -618596 2006 521 0.00
08/16/2016 775.06 1408463 -3920 2030000 -621537 2317 834 0.00
08/17/2016 774.57 1403573 -5672 2030000 -- 3016 551 0.00
08/18/2016 774.07 1398696 -5656 2030000 -631304 3059 600 0.00
08/19/2016 773.69 1394803 -4476 2030000 -- 2627 665 0.00
08/20/2016 773.42 1391889 -2428 2030000 -- 1916 447 0.00
08/21/2016 773.20 1389949 -2134 2030000 -- 1526 548 0.00
08/22/2016 772.91 1387043 -3003 2030000 -643054 1771 306 0.00
08/23/2016 772.60 1384142 -2998 2030000 -- 2039 577 0.00
08/24/2016 -- -- -- -- -- -- -- --

Later | Latest

Warning! This data is preliminary and subject to revision.

Show DNP Map | Plot DNP Data | 1 Month DNP Data | Real-Time DNP Data | DNP Info